Flag for U.S.A. Weather past 2 weeks in Casper, Wyoming, U.S.A.

Now
80 °F

Broken clouds.


Feels Like: 79 °F
Forecast: 51 / 80 °F
Wind: 3 mph from Southeast

Location: Natrona County International Airport

Current Time: Aug 22, 2014 at 3:54:41 PM

Latest Report: Aug 22, 2014 at 2:53 PM


Visibility: 10 mi

Pressure: 29.83 "Hg

Humidity: 28%

Dew point: 44 °F

Location of CasperLocation

Historic Weather in Casper — Graph

°F

Casper temperature yesterday

Maximum temperature yesterday: 82 °F (at 2:53 PM)
Minimum temperature yesterday: 52 °F (at 4:53 AM)
Average temperature yesterday: 67 °F

Past Weeks' High & Low Weather Summary

 TemperatureHumidityPressure
High93 °F (Aug 12, 3:53 PM)93% (Aug 10, 5:53 AM)30.23 "Hg (Aug 10, 5:53 AM)
Low47 °F (Aug 10, 5:53 AM)9% (Aug 17, 3:53 PM)29.64 "Hg (Aug 20, 3:53 AM)
Average70 °F45%29.92 "Hg
* Reported Aug 7 2:53 PM — Aug 22 2:53 PM, Casper, Weather by CustomWeather, © 2014

Note: Actual official high and low records may vary slightly from our data, if they occured in-between our weather recording intervals... More about our weather records

Advertising

Casper weather history for previous 24 hours

 ConditionsComfort  
Time TempWeatherWind HumidityBarometerVisibility
2:53 PM
Aug 22
80 °FBroken clouds.3 mph28%29.83 "Hg10 mi
1:53 PM78 °FSunny.N/A32%29.87 "Hg10 mi
12:53 PM75 °FSunny.N/A39%29.89 "Hg10 mi
11:53 AM70 °FSunny.5 mph47%29.93 "Hg10 mi
10:53 AM66 °FSunny.6 mph56%29.95 "Hg10 mi
9:53 AM63 °FSunny.9 mph68%29.97 "Hg10 mi
8:53 AM60 °FSunny.9 mph72%29.99 "Hg10 mi
7:53 AM55 °FSunny.3 mph87%30.01 "Hg10 mi
6:53 AM50 °FClear.No wind93%30.02 "Hg10 mi
5:53 AM49 °FClear.3 mph93%30.00 "Hg8 mi
4:53 AM50 °FClear.5 mph93%29.97 "Hg10 mi
3:53 AM53 °FOvercast.No wind89%29.97 "Hg10 mi
2:53 AM50 °FClear.No wind89%29.97 "Hg10 mi
1:53 AM51 °FClear.No wind92%29.97 "Hg10 mi
12:53 AM55 °FClear.6 mph87%29.97 "Hg10 mi
11:53 PM
Aug 21
59 °FClear.8 mph60%29.94 "Hg10 mi
10:53 PM61 °FClear.7 mph56%29.95 "Hg10 mi
9:53 PM64 °FClear.16 mph50%29.94 "Hg10 mi
8:53 PM64 °FSunny.14 mph50%29.94 "Hg10 mi
7:53 PM66 °FPassing clouds.23 mph47%29.94 "Hg10 mi
6:53 PM68 °FBroken clouds.32 mph45%29.93 "Hg10 mi
5:53 PM78 °FSunny.17 mph24%29.87 "Hg10 mi
4:53 PM81 °FPassing clouds.17 mph23%29.84 "Hg10 mi
3:53 PM82 °FPartly sunny.17 mph22%29.84 "Hg10 mi
Weather by CustomWeather, © 2014

See weather overviewHow to use our weather pages